,,Stat6,,Stat2,,Stat8,,Stat9,,Stat10,,Wind1,,Wind1,
time,status,PA1M_AVG,status,PR1M_SUM,status,RH1M_AVG,status,SR1M_AVG,status,TA1M_AVG,status,W1dAve1m,status,W1sAve1m,
2007-02-06, 16:44:00,VALID,920.128,VALID,0,VALID,72.7119,VALID,661.784,VALID,24.1722,VALID,3,VALID,1.92292,
2007-02-06, 16:45:00,VALID,920.132,VALID,0,VALID,71.5316,VALID,652.098,VALID,24.3128,VALID,18,VALID,1.33945,
2007-02-06, 16:46:00,VALID,920.133,VALID,0,VALID,71.2048,VALID,656.105,VALID,24.4258,VALID,29,VALID,1.46892,
2007-02-06, 16:47:00,VALID,920.112,VALID,0,VALID,69.8251,VALID,640.772,VALID,24.4575,VALID,355,VALID,1.87038,
2007-02-06, 16:48:00,VALID,920.12,VALID,0,VALID,70.8055,VALID,636.934,VALID,24.3709,VALID,35,VALID,1.2311,
2007-02-06, 16:49:00,VALID,920.114,VALID,0,VALID,70.499,VALID,528.477,VALID,24.4804,VALID,28,VALID,1.24019,
2007-02-06, 16:50:00,VALID,920.127,VALID,0,VALID,70.2409,VALID,578.18,VALID,24.5968,VALID,13,VALID,1.29563,
2007-02-06, 16:51:00,VALID,920.124,VALID,0,VALID,71.1374,VALID,645.289,VALID,24.7703,VALID,347,VALID,0.946075,
2007-02-06, 16:52:00,VALID,920.147,VALID,0,VALID,69.9522,VALID,642.792,VALID,24.9648,VALID,15,VALID,1.66152,
2007-02-06, 16:53:00,VALID,920.126,VALID,0,VALID,68.1313,VALID,538.853,VALID,24.8485,VALID,345,VALID,2.51342,
2007-02-06, 16:54:00,VALID,920.12,VALID,0,VALID,69.3012,VALID,665.988,VALID,24.6158,VALID,316,VALID,2.07177,
2007-02-06, 16:55:00,VALID,920.114,VALID,0,VALID,70.1506,VALID,667.771,VALID,24.5344,VALID,8,VALID,2.26803,
2007-02-06, 16:56:00,VALID,920.114,VALID,0,VALID,70.7444,VALID,666.973,VALID,24.4223,VALID,4,VALID,2.93496,
2007-02-06, 16:57:00,VALID,920.114,VALID,0,VALID,71.9334,VALID,669.707,VALID,24.318,VALID,7,VALID,1.85652,
2007-02-06, 16:58:00,VALID,920.118,VALID,0,VALID,71.1781,VALID,671.32,VALID,24.308,VALID,2,VALID,2.96429,
2007-02-06, 16:59:00,VALID,920.11,VALID,0,VALID,71.0662,VALID,679.454,VALID,24.1597,VALID,43,VALID,2.40141,
2007-02-06, 17:00:00,VALID,920.111,VALID,0,VALID,71.9766,VALID,693.412,VALID,24.1636,VALID,44,VALID,1.50799,
2007-02-06, 17:01:00,VALID,920.108,VALID,0,VALID,72.0682,VALID,698.965,VALID,24.35,VALID,65,VALID,1.47184,
2007-02-06, 17:02:00,VALID,920.102,VALID,0,VALID,69.9675,VALID,713.042,VALID,24.5183,VALID,73,VALID,1.30941,
2007-02-06, 17:03:00,VALID,920.083,VALID,0,VALID,69.7844,VALID,708.865,VALID,24.7441,VALID,360,VALID,1.28359,
2007-02-06, 17:04:00,VALID,920.086,VALID,0,VALID,69.1918,VALID,712.719,VALID,25.0155,VALID,11,VALID,2.59902,
2007-02-06, 17:05:00,VALID,920.082,VALID,0,VALID,68.3017,VALID,717.491,VALID,24.8407,VALID,38,VALID,3.5917,
2007-02-06, 17:06:00,VALID,920.108,VALID,0,VALID,69.4487,VALID,721.685,VALID,24.5603,VALID,46,VALID,2.73207,
2007-02-06, 17:07:00,VALID,920.084,VALID,0,VALID,69.5644,VALID,720.616,VALID,24.4178,VALID,29,VALID,2.89501,
2007-02-06, 17:08:00,VALID,920.087,VALID,0,VALID,70.2307,VALID,728.223,VALID,24.3571,VALID,16,VALID,2.10192,
2007-02-06, 17:09:00,VALID,920.087,VALID,0,VALID,70.293,VALID,724.232,VALID,24.3577,VALID,33,VALID,2.35385,
2007-02-06, 17:10:00,VALID,920.092,VALID,0,VALID,70.4863,VALID,719.495,VALID,24.3468,VALID,36,VALID,3.06436,
2007-02-06, 17:11:00,VALID,920.057,VALID,0,VALID,69.7971,VALID,695.908,VALID,24.3529,VALID,43,VALID,2.23382,
2007-02-06, 17:12:00,VALID,920.039,VALID,0,VALID,69.7462,VALID,724.504,VALID,24.4443,VALID,83,VALID,2.14063,
2007-02-06, 17:13:00,VALID,920.038,VALID,0,VALID,70.2269,VALID,735.915,VALID,24.6275,VALID,25,VALID,1.69417,
2007-02-06, 17:14:00,VALID,920.049,VALID,0,VALID,68.0537,VALID,736.594,VALID,24.8184,VALID,61,VALID,2.08333,
2007-02-06, 17:15:00,VALID,920.025,VALID,0,VALID,68.1288,VALID,739.736,VALID,24.9028,VALID,34,VALID,2.21975,
2007-02-06, 17:16:00,VALID,920.028,VALID,0,VALID,68.9769,VALID,749.738,VALID,24.9477,VALID,39,VALID,1.9202,
2007-02-06, 17:17:00,VALID,920.022,VALID,0,VALID,68.7811,VALID,750.094,VALID,25.0352,VALID,28,VALID,2.29742,
2007-02-06, 17:18:00,VALID,920.016,VALID,0,VALID,67.9774,VALID,735.219,VALID,25.0704,VALID,45,VALID,1.6916,
2007-02-06, 17:19:00,VALID,919.998,VALID,0,VALID,66.9551,VALID,652.828,VALID,25.0634,VALID,62,VALID,2.05697,
2007-02-06, 17:20:00,VALID,920.002,VALID,0,VALID,67.512,VALID,712.957,VALID,25.1024,VALID,31,VALID,1.26453,
2007-02-06, 17:21:00,VALID,919.995,VALID,0,VALID,67.9215,VALID,746.936,VALID,25.1312,VALID,17,VALID,2.60417,
2007-02-06, 17:22:00,VALID,919.983,VALID,0,VALID,68.4263,VALID,744.321,VALID,24.9997,VALID,23,VALID,3.58967,
2007-02-06, 17:23:00,VALID,919.977,VALID,0,VALID,69.7132,VALID,734.879,VALID,24.7926,VALID,11,VALID,2.92441,
2007-02-06, 17:24:00,VALID,919.988,VALID,0,VALID,70.0692,VALID,706.878,VALID,24.7532,VALID,348,VALID,1.99182,
2007-02-06, 17:25:00,VALID,919.976,VALID,0,VALID,70.0527,VALID,664.341,VALID,24.792,VALID,9,VALID,2.58313,
2007-02-06, 17:26:00,VALID,919.958,VALID,0,VALID,68.6806,VALID,585.567,VALID,24.7632,VALID,53,VALID,2.09233,
2007-02-06, 17:27:00,VALID,919.951,VALID,0,VALID,69.319,VALID,480.676,VALID,24.7984,VALID,28,VALID,1.68516,
2007-02-06, 17:28:00,VALID,919.946,VALID,0,VALID,69.2173,VALID,373.188,VALID,24.8601,VALID,10,VALID,2.94103,
2007-02-06, 17:29:00,VALID,919.93,VALID,0,VALID,70.7661,VALID,273.171,VALID,24.8592,VALID,313,VALID,2.3879,
2007-02-06, 17:30:00,VALID,919.943,VALID,0,VALID,68.4988,VALID,206.504,VALID,24.9658,VALID,36,VALID,2.3085,
2007-02-06, 17:31:00,VALID,919.911,VALID,0,VALID,70.0018,VALID,173.187,VALID,25.0249,VALID,340,VALID,2.80564,
2007-02-06, 17:32:00,VALID,919.929,VALID,0,VALID,69.9204,VALID,160.197,VALID,25.0892,VALID,326,VALID,2.30413,
2007-02-06, 17:33:00,VALID,919.936,VALID,0,VALID,68.3691,VALID,156.105,VALID,25.2278,VALID,39,VALID,1.79578,
2007-02-06, 17:34:00,VALID,919.909,VALID,0,VALID,67.7536,VALID,154.322,VALID,25.3154,VALID,73,VALID,1.36105,
2007-02-06, 17:35:00,VALID,919.903,VALID,0,VALID,68.0995,VALID,153.914,VALID,25.3865,VALID,10,VALID,1.63361,
2007-02-06, 17:36:00,VALID,919.884,VALID,0,VALID,67.3429,VALID,153.456,VALID,25.4404,VALID,27,VALID,2.47093,
2007-02-06, 17:37:00,VALID,919.862,VALID,0,VALID,68.1071,VALID,151.724,VALID,25.263,VALID,6,VALID,2.75586,
2007-02-06, 17:38:00,VALID,919.861,VALID,0,VALID,69.3381,VALID,150.212,VALID,25.2246,VALID,29,VALID,1.65574,
2007-02-06, 17:39:00,VALID,919.862,VALID,0,VALID,68.3513,VALID,149.177,VALID,25.4017,VALID,26,VALID,1.53832,
2007-02-06, 17:40:00,VALID,919.846,VALID,0,VALID,68.9642,VALID,148.463,VALID,25.5703,VALID,350,VALID,1.53813,
2007-02-06, 17:41:00,VALID,919.833,VALID,0,VALID,68.2546,VALID,150.331,VALID,25.7002,VALID,312,VALID,2.04092,
2007-02-06, 17:42:00,VALID,919.852,VALID,0,VALID,67.7994,VALID,153.082,VALID,25.7978,VALID,356,VALID,1.43038,
2007-02-06, 17:43:00,VALID,919.852,VALID,0,VALID,66.875,VALID,158.295,VALID,25.823,VALID,26,VALID,2.34878,
2007-02-06, 17:44:00,VALID,919.856,VALID,0,VALID,66.9678,VALID,183.189,VALID,25.6198,VALID,92,VALID,1.54483,
2007-02-06, 17:45:00,VALID,919.85,VALID,0,VALID,67.1827,VALID,187.774,VALID,25.6136,VALID,30,VALID,2.42746,
2007-02-06, 17:46:00,VALID,919.838,VALID,0,VALID,67.2196,VALID,390.491,VALID,25.7012,VALID,19,VALID,1.44922,
2007-02-06, 17:47:00,VALID,919.834,VALID,0,VALID,65.9111,VALID,515.64,VALID,25.8101,VALID,53,VALID,1.54859,
2007-02-06, 17:48:00,VALID,919.848,VALID,0,VALID,65.742,VALID,535.202,VALID,25.8977,VALID,15,VALID,1.72256,
2007-02-06, 17:49:00,VALID,919.849,VALID,0,VALID,66.6562,VALID,543.743,VALID,25.7742,VALID,354,VALID,2.19382,
2007-02-06, 17:50:00,VALID,919.817,VALID,0,VALID,68.556,VALID,647.411,VALID,25.7881,VALID,310,VALID,2.25986,
2007-02-06, 17:51:00,VALID,919.797,VALID,0,VALID,66.2481,VALID,738.225,VALID,25.8046,VALID,309,VALID,3.25893,
2007-02-06, 17:52:00,VALID,919.824,VALID,0,VALID,66.2353,VALID,753.151,VALID,25.655,VALID,310,VALID,1.68902,
2007-02-06, 17:53:00,VALID,919.821,VALID,0,VALID,65.3745,VALID,794.686,VALID,25.6321,VALID,19,VALID,3.43285,
2007-02-06, 17:54:00,VALID,919.814,VALID,0,VALID,66.2608,VALID,760.096,VALID,25.412,VALID,45,VALID,3.0439,
2007-02-06, 17:55:00,VALID,919.778,VALID,0,VALID,66.037,VALID,683.156,VALID,25.2634,VALID,100,VALID,2.06055,
2007-02-06, 17:56:00,VALID,919.778,VALID,0,VALID,66.346,VALID,819.376,VALID,25.4291,VALID,27,VALID,2.32533,
2007-02-06, 17:57:00,VALID,919.753,VALID,0,VALID,66.7058,VALID,820.48,VALID,25.5225,VALID,39,VALID,2.45139,
2007-02-06, 17:58:00,VALID,919.762,VALID,0,VALID,65.9988,VALID,763.305,VALID,25.5351,VALID,21,VALID,2.57203,
2007-02-06, 17:59:00,VALID,919.706,VALID,0,VALID,65.7801,VALID,820.191,VALID,25.506,VALID,36,VALID,1.78034,
2007-02-06, 18:00:00,VALID,919.696,VALID,0,VALID,67.3836,VALID,696.095,VALID,25.5345,VALID,26,VALID,1.81719,
2007-02-06, 18:01:00,VALID,919.682,VALID,0,VALID,67.9813,VALID,491.867,VALID,25.6579,VALID,27,VALID,1.48735,
2007-02-06, 18:02:00,VALID,919.662,VALID,0,VALID,66.585,VALID,735.762,VALID,25.7707,VALID,29,VALID,2.4543,
2007-02-06, 18:03:00,VALID,919.663,VALID,0,VALID,67.1547,VALID,608.797,VALID,25.8024,VALID,24,VALID,1.9351,
2007-02-06, 18:04:00,VALID,919.635,VALID,0,VALID,65.5538,VALID,675.413,VALID,25.9323,VALID,37,VALID,2.35231,
2007-02-06, 18:05:00,VALID,919.634,VALID,0,VALID,65.0629,VALID,700.969,VALID,25.8579,VALID,34,VALID,3.39687,
2007-02-06, 18:06:00,VALID,919.616,VALID,0,VALID,66.3053,VALID,841.995,VALID,25.6191,VALID,30,VALID,2.39262,
2007-02-06, 18:07:00,VALID,919.593,VALID,0,VALID,65.658,VALID,489.337,VALID,25.603,VALID,50,VALID,3.34829,
2007-02-06, 18:08:00,VALID,919.579,VALID,0,VALID,66.3053,VALID,761.454,VALID,25.5454,VALID,39,VALID,2.66946,
2007-02-06, 18:09:00,VALID,919.568,VALID,0,VALID,67.2603,VALID,631.874,VALID,25.6938,VALID,342,VALID,1.95149,
2007-02-06, 18:10:00,VALID,919.554,VALID,0,VALID,66.8457,VALID,836.815,VALID,25.8654,VALID,358,VALID,2.00547,
2007-02-06, 18:11:00,VALID,919.532,VALID,0,VALID,64.2923,VALID,750.349,VALID,26.0056,VALID,61,VALID,1.58771,
2007-02-06, 18:12:00,VALID,919.497,VALID,0,VALID,63.6222,VALID,760.487,VALID,26.195,VALID,52,VALID,1.87723,
2007-02-06, 18:13:00,VALID,919.492,VALID,0,VALID,63.804,VALID,728.936,VALID,26.4238,VALID,66,VALID,1.47337,
2007-02-06, 18:14:00,VALID,919.46,VALID,0,VALID,62.3824,VALID,824.063,VALID,26.5631,VALID,48,VALID,2.807,
2007-02-06, 18:15:00,VALID,919.449,VALID,0,VALID,62.3811,VALID,873.952,VALID,26.3717,VALID,94,VALID,2.27285,
2007-02-06, 18:16:00,VALID,919.449,VALID,0,VALID,62.816,VALID,827.289,VALID,26.4981,VALID,80,VALID,1.49414,
2007-02-06, 18:17:00,VALID,919.438,VALID,0,VALID,62.7054,VALID,871.066,VALID,26.7434,VALID,73,VALID,1.75763,
2007-02-06, 18:18:00,VALID,919.439,VALID,0,VALID,59.8595,VALID,878.928,VALID,26.9273,VALID,52,VALID,1.96075,
2007-02-06, 18:19:00,VALID,919.415,VALID,0,VALID,60.4902,VALID,876.313,VALID,26.8559,VALID,75,VALID,2.39113,
2007-02-06, 18:20:00,VALID,919.412,VALID,0,VALID,60.4101,VALID,875.854,VALID,26.799,VALID,92,VALID,1.90978,
2007-02-06, 18:21:00,VALID,919.377,VALID,0,VALID,61.0332,VALID,879.352,VALID,26.8259,VALID,141,VALID,1.28838,
2007-02-06, 18:22:00,VALID,919.355,VALID,0,VALID,58.8575,VALID,886.671,VALID,27.0005,VALID,75,VALID,2.77269,
2007-02-06, 18:23:00,VALID,919.36,VALID,0,VALID,57.769,VALID,879.149,VALID,26.9452,VALID,68,VALID,3.07751,
2007-02-06, 18:24:00,VALID,919.369,VALID,0,VALID,59.0686,VALID,879.471,VALID,26.8773,VALID,74,VALID,1.41697,
2007-02-06, 18:25:00,VALID,919.358,VALID,0,VALID,59.4907,VALID,881.424,VALID,26.9872,VALID,74,VALID,1.41797,
2007-02-06, 18:26:00,VALID,919.309,VALID,0,VALID,58.2726,VALID,893.022,VALID,27.1172,VALID,88,VALID,1.91504,
2007-02-06, 18:27:00,VALID,919.316,VALID,0,VALID,59.8188,VALID,895.331,VALID,27.1362,VALID,53,VALID,2.46966,
2007-02-06, 18:28:00,VALID,919.317,VALID,0,VALID,59.5085,VALID,901.41,VALID,27.0974,VALID,35,VALID,2.58066,
2007-02-06, 18:29:00,VALID,919.322,VALID,0,VALID,60.0948,VALID,900.731,VALID,26.8673,VALID,6,VALID,2.70294,
2007-02-06, 18:30:00,VALID,919.305,VALID,0,VALID,60.4266,VALID,895.382,VALID,26.6058,VALID,18,VALID,2.35469,
2007-02-06, 18:31:00,VALID,919.303,VALID,0,VALID,59.464,VALID,890.492,VALID,26.5476,VALID,34,VALID,1.58327,
2007-02-06, 18:32:00,VALID,919.287,VALID,0,VALID,58.4277,VALID,891.171,VALID,26.7412,VALID,49,VALID,1.73212,
2007-02-06, 18:33:00,VALID,919.282,VALID,0,VALID,60.1202,VALID,889.099,VALID,26.8543,VALID,21,VALID,1.61452,
2007-02-06, 18:34:00,VALID,919.262,VALID,0,VALID,59.7184,VALID,882.952,VALID,26.9219,VALID,48,VALID,1.49314,
2007-02-06, 18:35:00,VALID,919.252,VALID,0,VALID,60.2753,VALID,878.605,VALID,27.0192,VALID,44,VALID,1.61163,
2007-02-06, 18:36:00,VALID,919.235,VALID,0,VALID,60.4915,VALID,880.609,VALID,27.0796,VALID,22,VALID,1.94029,
2007-02-06, 18:37:00,VALID,919.21,VALID,0,VALID,59.9816,VALID,872.543,VALID,27.1704,VALID,324,VALID,1.48456,
2007-02-06, 18:38:00,VALID,919.207,VALID,0,VALID,59.623,VALID,885.72,VALID,27.1406,VALID,341,VALID,1.92615,
2007-02-06, 18:39:00,VALID,919.201,VALID,0,VALID,58.9033,VALID,890.543,VALID,27.1342,VALID,28,VALID,1.52871,
2007-02-06, 18:40:00,VALID,919.181,VALID,0,VALID,59.1487,VALID,890.645,VALID,27.1665,VALID,23,VALID,2.24691,
2007-02-06, 18:41:00,VALID,919.158,VALID,0,VALID,57.9229,VALID,890.967,VALID,27.1025,VALID,22,VALID,1.66406,
2007-02-06, 18:42:00,VALID,919.117,VALID,0,VALID,59.1004,VALID,890.05,VALID,27.1148,VALID,12,VALID,1.86737,
2007-02-06, 18:43:00,VALID,919.092,VALID,0,VALID,61.0726,VALID,656.971,VALID,27.1568,VALID,328,VALID,1.61864,
2007-02-06, 18:44:00,VALID,919.069,VALID,0,VALID,61.1489,VALID,895.28,VALID,27.225,VALID,332,VALID,2.60714,
2007-02-06, 18:45:00,VALID,919.062,VALID,0,VALID,61.7835,VALID,896.503,VALID,27.2865,VALID,5,VALID,0.855114,
2007-02-06, 18:46:00,VALID,919.026,VALID,0,VALID,60.4368,VALID,782.765,VALID,27.6205,VALID,2,VALID,1.85139,
2007-02-06, 18:47:00,VALID,918.985,VALID,0,VALID,61.4325,VALID,894.686,VALID,27.5418,VALID,307,VALID,2.0642,
2007-02-06, 18:48:00,VALID,918.998,VALID,0,VALID,62.2069,VALID,898.744,VALID,27.4574,VALID,304,VALID,1.74432,
2007-02-06, 18:49:00,VALID,918.991,VALID,0,VALID,59.0902,VALID,899.373,VALID,27.6,VALID,355,VALID,1.53729,
2007-02-06, 18:50:00,VALID,918.979,VALID,0,VALID,58.4773,VALID,898.201,VALID,27.5412,VALID,28,VALID,2.1108,
2007-02-06, 18:51:00,VALID,918.948,VALID,0,VALID,60.1494,VALID,901.665,VALID,27.3892,VALID,71,VALID,2.1077,
2007-02-06, 18:52:00,VALID,918.951,VALID,0,VALID,60.9238,VALID,900.443,VALID,27.3788,VALID,47,VALID,1.97874,
2007-02-06, 18:53:00,VALID,918.929,VALID,0,VALID,61.065,VALID,900.731,VALID,27.47,VALID,51,VALID,2.09648,
2007-02-06, 18:54:00,VALID,918.937,VALID,0,VALID,61.1934,VALID,899.05,VALID,27.5509,VALID,64,VALID,1.31993,
2007-02-06, 18:55:00,VALID,918.92,VALID,0,VALID,58.3488,VALID,902.395,VALID,27.7218,VALID,41,VALID,1.3631,
2007-02-06, 18:56:00,VALID,918.909,VALID,0,VALID,57.0276,VALID,900.493,VALID,27.8796,VALID,46,VALID,1.37969,
2007-02-06, 18:57:00,VALID,918.884,VALID,0,VALID,56.1795,VALID,902.158,VALID,28.01,VALID,70,VALID,1.45508,
2007-02-06, 18:58:00,VALID,918.855,VALID,0,VALID,56.5686,VALID,902.684,VALID,28.0606,VALID,54,VALID,1.10398,
2007-02-06, 18:59:00,VALID,918.848,VALID,0,VALID,58.1543,VALID,900.103,VALID,28.1228,VALID,40,VALID,1.38972,
2007-02-06, 19:00:00,VALID,918.821,VALID,0,VALID,56.7746,VALID,898.388,VALID,28.0879,VALID,6,VALID,1.60174,
2007-02-06, 19:01:00,VALID,918.799,VALID,0,VALID,58.7418,VALID,898.812,VALID,27.9051,VALID,87,VALID,1.69492,
2007-02-06, 19:02:00,VALID,918.797,VALID,0,VALID,58.2255,VALID,899.101,VALID,27.95,VALID,93,VALID,1.52309,
2007-02-06, 19:03:00,VALID,918.803,VALID,0,VALID,55.2283,VALID,899.56,VALID,28.029,VALID,18,VALID,2.08966,
2007-02-06, 19:04:00,VALID,918.773,VALID,0,VALID,54.6765,VALID,890.016,VALID,27.9123,VALID,41,VALID,0.777148,
2007-02-06, 19:05:00,VALID,918.753,VALID,0,VALID,53.7024,VALID,894.177,VALID,27.9148,VALID,360,VALID,1.11392,
2007-02-06, 19:06:00,VALID,918.709,VALID,0,VALID,54.5722,VALID,898.32,VALID,27.8595,VALID,273,VALID,1.2832,
2007-02-06, 19:07:01,VALID,918.694,VALID,0,VALID,54.9982,VALID,900.035,VALID,27.922,VALID,304,VALID,2.03498,
2007-02-06, 19:08:00,VALID,918.665,VALID,0,VALID,56.0803,VALID,897.42,VALID,27.9827,VALID,292,VALID,2.04345,
2007-02-06, 19:09:00,VALID,918.656,VALID,0,VALID,53.4049,VALID,902.446,VALID,28.1648,VALID,285,VALID,1.43623,
2007-02-06, 19:10:00,VALID,918.636,VALID,0,VALID,52.5135,VALID,897.454,VALID,28.3186,VALID,327,VALID,1.61355,
2007-02-06, 19:11:00,VALID,918.612,VALID,0,VALID,52.1091,VALID,900.103,VALID,28.1925,VALID,302,VALID,2.21227,
2007-02-06, 19:12:00,VALID,918.614,VALID,0,VALID,51.6449,VALID,899.05,VALID,28.0987,VALID,286,VALID,1.05583,
2007-02-06, 19:13:01,VALID,918.584,VALID,0,VALID,52.0277,VALID,891.324,VALID,27.9626,VALID,253,VALID,0.940168,
2007-02-06, 19:14:00,VALID,918.574,VALID,0,VALID,53.3375,VALID,891.969,VALID,28.121,VALID,300,VALID,0.713995,
2007-02-06, 19:15:01,VALID,918.543,VALID,0,VALID,53.3273,VALID,896.877,VALID,28.5773,VALID,264,VALID,0.548828,
2007-02-06, 19:16:00,VALID,918.524,VALID,0,VALID,50.6429,VALID,897.046,VALID,28.878,VALID,237,VALID,1.91771,
2007-02-06, 19:17:01,VALID,918.516,VALID,0,VALID,49.9639,VALID,895.535,VALID,28.7609,VALID,246,VALID,1.92987,
2007-02-06, 19:18:00,VALID,918.503,VALID,0,VALID,51.032,VALID,898.201,VALID,28.4662,VALID,225,VALID,1.91216,
2007-02-06, 19:19:00,VALID,918.497,VALID,0,VALID,52.4944,VALID,900.324,VALID,28.1041,VALID,249,VALID,2.1319,
2007-02-06, 19:20:00,VALID,918.495,VALID,0,VALID,51.7022,VALID,899.543,VALID,28.2719,VALID,219,VALID,0.963356,
2007-02-06, 19:21:00,VALID,918.487,VALID,0,VALID,51.3957,VALID,904.229,VALID,28.453,VALID,227,VALID,0.827035,
2007-02-06, 19:22:01,VALID,918.479,VALID,0,VALID,51.4072,VALID,900.103,VALID,28.661,VALID,219,VALID,0.159489,
2007-02-06, 19:23:01,VALID,918.473,VALID,0,VALID,51.912,VALID,896.435,VALID,28.9186,VALID,218,VALID,0.869855,
2007-02-06, 19:24:00,VALID,918.472,VALID,0,VALID,51.4008,VALID,887.826,VALID,29.1518,VALID,342,VALID,1.83929,
2007-02-06, 19:25:00,VALID,918.448,VALID,0,VALID,51.9158,VALID,894.499,VALID,28.9772,VALID,314,VALID,1.51448,
2007-02-06, 19:26:00,VALID,918.452,VALID,0,VALID,51.9387,VALID,896.095,VALID,28.9556,VALID,279,VALID,0.65298,
2007-02-06, 19:27:00,VALID,918.432,VALID,0,VALID,51.7276,VALID,902.412,VALID,29.1788,VALID,293,VALID,0.720465,
2007-02-06, 19:28:01,VALID,918.414,VALID,0,VALID,52.4079,VALID,901.954,VALID,29.2492,VALID,303,VALID,1.20934,
2007-02-06, 19:29:01,VALID,918.408,VALID,0,VALID,54.0966,VALID,903.329,VALID,28.9977,VALID,296,VALID,0.917783,
2007-02-06, 19:30:00,VALID,918.385,VALID,0,VALID,55.8527,VALID,897.827,VALID,29.0106,VALID,329,VALID,0.93109,
2007-02-06, 19:31:01,VALID,918.307,VALID,0,VALID,54.4819,VALID,900.765,VALID,29.1274,VALID,273,VALID,2.58757,
2007-02-06, 19:32:01,VALID,918.342,VALID,0,VALID,55.3924,VALID,890.577,VALID,29.081,VALID,27,VALID,2.76579,
2007-02-06, 19:33:00,VALID,918.356,VALID,0,VALID,54.618,VALID,890.407,VALID,28.9994,VALID,9,VALID,2.08836,
2007-02-06, 19:34:00,VALID,918.367,VALID,0,VALID,52.9903,VALID,881.781,VALID,28.7997,VALID,30,VALID,1.59263,
2007-02-06, 19:35:01,VALID,918.327,VALID,0,VALID,53.3286,VALID,884.09,VALID,28.5632,VALID,97,VALID,1.20254,
2007-02-06, 19:36:00,VALID,918.312,VALID,0,VALID,53.766,VALID,878.299,VALID,28.4336,VALID,65,VALID,1.06994,
2007-02-06, 19:37:01,VALID,918.302,VALID,0,VALID,53.34,VALID,882.358,VALID,28.6312,VALID,318,VALID,1.57589,
2007-02-06, 19:38:00,VALID,918.298,VALID,0,VALID,53.2904,VALID,884.616,VALID,28.6735,VALID,332,VALID,1.53627,
2007-02-06, 19:39:00,VALID,918.271,VALID,0,VALID,53.2014,VALID,889.948,VALID,28.6373,VALID,307,VALID,1.78027,
2007-02-06, 19:40:01,VALID,918.246,VALID,0,VALID,53.6706,VALID,890.56,VALID,28.5891,VALID,311,VALID,2.12046,
2007-02-06, 19:41:01,VALID,918.227,VALID,0,VALID,53.3794,VALID,889.66,VALID,28.5895,VALID,9,VALID,1.125,
2007-02-06, 19:42:00,VALID,918.209,VALID,0,VALID,52.5046,VALID,888.93,VALID,28.606,VALID,310,VALID,1.294,
2007-02-06, 19:43:00,VALID,918.176,VALID,0,VALID,54.1754,VALID,886.756,VALID,28.6092,VALID,294,VALID,2.1424,
2007-02-06, 19:44:00,VALID,918.164,VALID,0,VALID,53.0742,VALID,886.501,VALID,28.685,VALID,276,VALID,1.59624,
2007-02-06, 19:45:00,VALID,918.152,VALID,0,VALID,52.6114,VALID,880.999,VALID,28.9711,VALID,234,VALID,0.731707,
2007-02-06, 19:46:00,VALID,918.126,VALID,0,VALID,50.7268,VALID,878.741,VALID,29.4454,VALID,105,VALID,1.23846,
2007-02-06, 19:47:01,VALID,918.121,VALID,0,VALID,47.0977,VALID,881.101,VALID,29.5913,VALID,111,VALID,1.36392,
2007-02-06, 19:48:01,VALID,918.106,VALID,0,VALID,47.6063,VALID,884.005,VALID,29.2808,VALID,130,VALID,1.17634,
2007-02-06, 19:49:00,VALID,918.091,VALID,0,VALID,48.3604,VALID,884.073,VALID,29.2542,VALID,44,VALID,0.632813,
2007-02-06, 19:50:00,VALID,918.076,VALID,0,VALID,48.101,VALID,881.05,VALID,29.5744,VALID,82,VALID,0.674006,
2007-02-06, 19:51:01,VALID,918.072,VALID,0,VALID,47.352,VALID,885.296,VALID,29.6111,VALID,149,VALID,1.17969,
2007-02-06, 19:52:01,VALID,918.059,VALID,0,VALID,48.5232,VALID,893.395,VALID,29.4134,VALID,118,VALID,1.08854,
2007-02-06, 19:53:01,VALID,918.04,VALID,0,VALID,46.9947,VALID,889.32,VALID,29.6063,VALID,77,VALID,1.252,
2007-02-06, 19:54:00,VALID,918.003,VALID,0,VALID,46.486,VALID,889.252,VALID,29.9237,VALID,94,VALID,0.880729,
2007-02-06, 19:55:00,VALID,917.971,VALID,0,VALID,47.4754,VALID,891.528,VALID,30.1922,VALID,174,VALID,0.828852,
2007-02-06, 19:56:00,VALID,917.949,VALID,0,VALID,47.1562,VALID,893.633,VALID,30.2683,VALID,111,VALID,0.905729,
2007-02-06, 19:57:00,VALID,917.916,VALID,0,VALID,48.2142,VALID,894.448,VALID,30.568,VALID,319,VALID,1.6572,
2007-02-06, 19:58:00,VALID,917.928,VALID,0,VALID,45.3645,VALID,889.948,VALID,30.733,VALID,202,VALID,0.812128,
2007-02-06, 19:59:01,VALID,917.939,VALID,0,VALID,44.716,VALID,891.018,VALID,30.5005,VALID,141,VALID,1.36793,
2007-02-06, 20:00:00,VALID,917.926,VALID,0,VALID,43.2918,VALID,885.669,VALID,29.7302,VALID,141,VALID,2.5334,
2007-02-06, 20:01:00,VALID,917.918,VALID,0,VALID,44.9563,VALID,891.545,VALID,29.2146,VALID,150,VALID,1.61793,
2007-02-06, 20:02:01,VALID,917.891,VALID,0,VALID,45.6404,VALID,890.695,VALID,29.1147,VALID,196,VALID,1.22347,
2007-02-06, 20:03:00,VALID,917.837,VALID,0,VALID,47.1091,VALID,893.769,VALID,29.0597,VALID,257,VALID,2.03307,
2007-02-06, 20:04:01,VALID,917.855,VALID,0,VALID,48.0845,VALID,893.718,VALID,29.3058,VALID,281,VALID,1.53203,
2007-02-06, 20:05:00,VALID,917.863,VALID,0,VALID,45.8731,VALID,898.269,VALID,29.451,VALID,128,VALID,1.30293,
2007-02-06, 20:06:00,VALID,917.848,VALID,0,VALID,44.613,VALID,900.782,VALID,29.3572,VALID,132,VALID,1.79197,
2007-02-06, 20:07:00,VALID,917.823,VALID,0,VALID,45.5629,VALID,894.856,VALID,29.0985,VALID,136,VALID,1.20126,
2007-02-06, 20:08:01,VALID,917.797,VALID,0,VALID,45.8045,VALID,895.705,VALID,29.2429,VALID,99,VALID,0.882813,
2007-02-06, 20:09:00,VALID,917.77,VALID,0,VALID,45.8706,VALID,892.377,VALID,29.5735,VALID,38,VALID,0.863086,
2007-02-06, 20:10:01,VALID,917.756,VALID,0,VALID,44.8291,VALID,889.269,VALID,29.8229,VALID,61,VALID,1.01136,
2007-02-06, 20:11:01,VALID,917.733,VALID,0,VALID,44.5392,VALID,890.407,VALID,29.942,VALID,52,VALID,0.932106,
2007-02-06, 20:12:01,VALID,917.714,VALID,0,VALID,45.4917,VALID,890.254,VALID,29.8362,VALID,102,VALID,1.65644,
2007-02-06, 20:13:00,VALID,917.695,VALID,0,VALID,46.1999,VALID,890.492,VALID,29.8269,VALID,103,VALID,1.62736,
2007-02-06, 20:14:00,VALID,917.684,VALID,0,VALID,46.275,VALID,888.76,VALID,29.805,VALID,111,VALID,2.18423,
2007-02-06, 20:15:01,VALID,917.668,VALID,0,VALID,45.924,VALID,892.631,VALID,29.8564,VALID,9,VALID,0.883878,
2007-02-06, 20:16:00,VALID,917.671,VALID,0,VALID,46.1173,VALID,897.624,VALID,30.1576,VALID,272,VALID,1.0119,
2007-02-06, 20:17:00,VALID,917.643,VALID,0,VALID,44.5532,VALID,893.548,VALID,30.2736,VALID,270,VALID,2.17115,
2007-02-06, 20:18:01,VALID,917.658,VALID,0,VALID,44.6015,VALID,890.441,VALID,30.3161,VALID,238,VALID,0.732195,
2007-02-06, 20:19:00,VALID,917.657,VALID,0,VALID,43.9416,VALID,887.588,VALID,30.1794,VALID,157,VALID,1.51097,